Weather History for Keahole Point, HI

Change the Weather History Date:

Tuesday, April 2, 2013

  Actual Average Record
Temperature  
Mean Temperature 74 °F -  
Max Temperature 81 °F 80 °F 89 °F (1983)
Min Temperature 66 °F 69 °F 65 °F (1990)
Cooling Degree Days 8    
Growing Degree Days 24 (Base 50)    
Moisture  
Dew Point 56 °F    
Average Humidity 53    
Maximum Humidity 68    
Minimum Humidity 39    
Precipitation  
Precipitation 0.00 in - - ()
Sea Level Pressure  
Sea Level Pressure 30.01 in    
Wind  
Wind Speed 8 mph (North)    
Max Wind Speed 15 mph    
Max Gust Speed -    
Visibility 10 miles    
Events      
Averages and records for this station are not official NWS values.
T = Trace of Precipitation, MM = Missing Value Source: NWS Daily Summary

Daily Weather History Graph

Daily Weather History Graph

Search for Another Location

Airport:

Trip Planner

Search our weather history database for the weather conditions in past years. The results will help you decide how hot, cold, wet, or windy it might be!

Date:

Astronomy

Apr. 02, 2013 Rise Set
Actual Time 6:16 AM HST 6:38 PM HST
Civil Twilight 5:54 AM HST 7:00 PM HST
Nautical Twilight 5:28 AM HST 7:26 PM HST
Astronomical Twilight 5:02 AM HST 7:52 PM HST
Moon 12:22 AM HST (4/2) 11:49 AM HST (4/2)
Length of Visible Light 13h 06m
Length of Day
12h 22m
Waning Gibbous, 53% of the Moon is Illuminated
Apr 2
Waning Gibbous
Apr 2
Last Quarter
Apr 9
New
Apr 18
First Quarter
Apr 25
Full

Hourly Weather History & Observations

Time (HST) Temp. Heat Index Dew Point Humidity Pressure Visibility Wind Dir Wind Speed Gust Speed Precip Events Conditions
12:53 AM 70.0 °F - 55.9 °F 61% 30.00 in 10.0 mi NE 5.8 mph - N/A   Mostly Cloudy
1:53 AM 69.1 °F - 57.0 °F 65% 29.98 in 10.0 mi NNE 3.5 mph - N/A   Scattered Clouds
2:53 AM 68.0 °F - 55.9 °F 65% 29.98 in 10.0 mi NE 6.9 mph - N/A   Scattered Clouds
3:53 AM 68.0 °F - 55.9 °F 65% 29.97 in 10.0 mi NE 4.6 mph - N/A   Mostly Cloudy
4:53 AM 68.0 °F - 55.9 °F 65% 29.96 in 10.0 mi NE 5.8 mph - N/A   Scattered Clouds
5:53 AM 66.9 °F - 55.9 °F 68% 29.99 in 10.0 mi NE 9.2 mph - N/A   Clear
6:53 AM 68.0 °F - 55.9 °F 65% 30.01 in 10.0 mi NE 5.8 mph - N/A   Clear
7:53 AM 73.9 °F - 55.9 °F 53% 30.02 in 10.0 mi NNE 8.1 mph - N/A   Clear
8:53 AM 75.0 °F - 54.0 °F 48% 30.04 in 10.0 mi North 6.9 mph - N/A   Clear
9:53 AM 77.0 °F - 54.0 °F 45% 30.05 in 10.0 mi NNW 6.9 mph - N/A   Clear
10:53 AM 79.0 °F - 55.0 °F 44% 30.05 in 10.0 mi NW 13.8 mph - N/A   Clear
11:53 AM 80.1 °F 80.0 °F 54.0 °F 40% 30.04 in 10.0 mi WNW 13.8 mph - N/A   Clear
12:53 PM 79.0 °F - 54.0 °F 42% 30.02 in 10.0 mi WNW 11.5 mph - N/A   Clear
1:53 PM 81.0 °F 80.5 °F 54.0 °F 39% 29.99 in 10.0 mi NW 13.8 mph - N/A   Clear
2:53 PM 78.1 °F - 55.9 °F 46% 29.97 in 10.0 mi NW 13.8 mph - N/A   Clear
3:53 PM 79.0 °F - 57.9 °F 48% 29.97 in 10.0 mi NNW 13.8 mph - N/A   Clear
4:53 PM 78.1 °F - 57.0 °F 48% 29.97 in 10.0 mi NNW 13.8 mph - N/A   Clear
5:53 PM 77.0 °F - 55.9 °F 48% 29.99 in 10.0 mi NNW 12.7 mph - N/A   Mostly Cloudy
6:53 PM 75.0 °F - 57.0 °F 53% 30.00 in 10.0 mi North 15.0 mph - N/A   Scattered Clouds
7:53 PM 75.0 °F - 55.9 °F 51% 30.00 in 10.0 mi North 12.7 mph - N/A   Mostly Cloudy
8:53 PM 73.9 °F - 55.0 °F 52% 30.03 in 10.0 mi NNE 5.8 mph - N/A   Mostly Cloudy
9:53 PM 73.9 °F - 55.0 °F 52% 30.05 in 10.0 mi Calm Calm - N/A   Mostly Cloudy
10:53 PM 73.9 °F - 55.9 °F 53% 30.06 in 10.0 mi NNE 3.5 mph - N/A   Scattered Clouds
11:53 PM 71.1 °F - 54.0 °F 55% 30.04 in 10.0 mi ENE 3.5 mph - N/A   Clear